[[{"header":{"parameterUnit":"m.s-1","parameterCategory":1,"la1":30.2991,"la2":30.254,"lo1":-89.0895,"lo2":-89.0444,"dy":0.0017,"dx":0.0017,"nx":28,"ny":28,"refTime":"2025-04-06T21:00:00:Z","depth":0,"parameterNumber":2,"parameterNumberName":"U-component_of_WINDS"},"data":[0,0,0,0,0,0,0,0,0,0,0,0,0,0,0,0,0,0,0,0,0,0,0,0,0,0,0,0,0,0,0,0,0,0,0,0,0,0,0,0,0,0,0,0,0,0,0,0,0,0,0,0,0,0,0,0,0,0,3.8839,3.884,0,3.892,3.8921,3.8922,3.8892,3.889,3.8888,3.8887,3.8968,3.8971,3.8975,0,0,0,0,0,0,0,0,0,0,0,0,0,3.8657,3.8661,3.8839,3.884,3.8841,3.892,3.8921,3.8922,3.8892,3.889,3.8888,3.8886,3.8966,3.8971,3.8976,0,0,0,0,0,0,0,0,0,0,0,0,0,3.8737,3.8662,3.8839,3.8836,3.8836,3.892,3.8921,3.8923,3.8893,3.889,3.8887,3.8885,3.8965,3.8971,3.8976,3.9067,0,0,3.8994,3.8997,0,0,0,0,0,0,0,0,3.8733,3.8744,3.8835,3.8836,3.8837,3.8893,3.8887,3.8971,3.8894,3.8871,3.8887,3.8883,3.8945,3.8952,3.8974,3.9071,3.9074,3.8995,3.8998,3.9001,3.9002,0,0,0,0,0,0,0,3.8727,3.874,3.8871,3.8837,3.8838,3.883,3.8838,3.8903,3.8923,3.8873,3.8871,3.8881,3.8945,3.8968,3.8975,3.9076,3.8994,3.9,3.9003,3.9005,3.9253,3.9256,0,0,0,0,0,0,3.8721,3.8736,3.8868,3.8873,3.8777,3.8836,3.8845,3.8878,3.8922,3.8926,3.8883,3.888,3.8959,3.8968,3.8978,3.9088,3.9,3.9006,3.9009,3.925,3.9254,3.9257,0,0,0,0,0,0,3.8718,3.8734,3.8865,3.8804,3.882,3.8842,3.8879,3.8881,3.8904,3.893,3.8933,3.8903,3.8958,3.897,3.9046,3.909,3.9009,3.9014,3.9247,3.9251,3.9256,3.9309,0,0,0,0,0,0,3.8713,3.8732,3.8767,3.8805,3.8824,3.8932,3.8882,3.8885,3.8914,3.891,3.8949,3.8953,3.8956,3.9037,3.9052,3.9097,3.9018,3.9243,3.9249,3.9254,3.9303,3.9315,3.9325,0,0,0,0,0,3.8706,3.8778,3.8769,3.8785,3.8868,3.8935,3.8945,3.8948,3.8918,3.8953,3.897,3.8952,3.9084,3.9045,3.9061,3.9109,3.924,3.9247,3.9254,3.9298,3.9312,3.9324,0,0,0,0,0,0,3.8743,3.8783,3.8773,3.886,3.8894,3.8929,3.8974,3.8963,3.9006,3.9,3.9001,3.901,3.9089,3.9106,3.9063,3.92,3.9157,3.9168,3.9185,3.9199,3.921,3.9203,3.9023,0,0,0,0,0,3.8762,3.8813,3.8845,3.8918,3.8936,3.8952,3.8981,3.8981,3.9016,3.903,3.9053,3.9087,3.9137,3.9169,3.9215,3.9306,3.9314,3.9347,3.9357,3.9366,3.9375,3.9425,3.944,3.928,3.928,3.928,0,0,3.88,3.8828,3.886,3.8926,3.8953,3.9006,3.8964,3.9022,3.9062,3.9039,3.9112,3.913,3.9169,3.9253,3.9291,3.927,3.9421,3.9375,3.9382,3.9386,3.9434,3.9449,3.9462,3.9285,3.9284,3.9284,0,0,3.8897,3.8923,3.8988,3.9016,3.9057,3.9068,3.9084,3.9121,3.9132,3.9207,3.9191,3.9238,3.9322,3.9351,3.9377,3.9487,3.9472,3.9502,3.9558,3.9607,3.962,3.9631,3.9671,3.9685,3.9511,3.9511,3.9511,0,3.8939,3.9019,3.9022,3.9082,3.9112,3.9095,3.916,3.9187,3.9242,3.9263,3.9239,3.9346,3.9371,3.9462,3.9489,3.951,3.9528,3.9497,3.9618,3.9629,3.9639,3.9677,3.9692,3.9515,3.9514,3.9514,3.9514,0,3.9069,3.9125,3.9172,3.9226,3.9261,3.9323,3.9336,3.9371,3.9368,3.9382,3.9458,3.9488,3.9541,3.9562,3.9559,3.9653,3.9639,3.9617,3.9574,3.9658,3.9694,3.9708,3.952,3.9518,3.9517,3.9517,0,0,3.919,3.9247,3.9264,3.9289,3.9335,3.9378,3.944,3.9493,3.9523,3.9562,3.9614,3.9687,3.9667,3.9696,3.9696,3.9739,3.9826,3.9712,3.9713,3.9732,3.9932,3.9949,3.9966,3.9817,3.9819,3.9822,3.9929,0,3.9291,3.94,3.9406,3.9505,3.9557,3.9543,3.9597,3.9631,3.9645,3.9692,3.9707,3.9759,3.9729,3.9746,3.9789,3.9806,3.9866,3.9799,3.9865,3.9867,3.9855,3.9984,4.0002,4.0101,3.9943,3.9945,3.9947,0,3.9422,3.9467,3.9571,3.9611,3.9633,3.9682,3.9731,3.9776,3.9814,3.9822,3.9856,3.9851,3.9914,3.987,3.9958,3.9912,3.9939,3.9953,3.9956,3.9962,3.9912,3.9994,4.0133,4.0148,3.9969,3.9967,3.9966,0,3.9501,3.9586,3.9661,3.9682,3.973,3.9765,3.9786,3.9822,3.9854,3.9898,3.9919,3.9969,3.9996,4.0035,4.0043,4.001,4.0132,4.0088,4.014,4.014,4.0165,4.0164,4.0311,4.0184,4.0183,4.0183,4.0183,0,3.9613,3.9677,3.9697,3.9742,3.9815,3.9821,3.9892,3.9911,3.9944,3.9993,3.9984,4.003,4.0038,4.0087,4.0094,4.0166,4.0178,4.0186,4.0187,4.0187,4.0186,4.0204,4.0198,4.0187,4.0186,4.0185,4.0185,0,3.9712,3.9727,3.9807,3.9847,3.9859,3.991,3.9944,3.9988,4.0002,4.0064,4.0079,4.0102,4.0158,4.0171,4.0237,4.0242,4.0328,4.0322,4.0315,4.0315,4.0366,4.0361,4.0531,4.0554,4.0411,4.0412,4.0414,0,3.9782,3.9832,3.9877,3.991,3.9934,3.9986,4.0019,4.0028,4.0063,4.0111,4.015,4.0205,4.025,4.0341,4.0363,4.0414,4.0409,4.0466,4.0417,4.0416,4.0411,4.0407,4.0413,4.0474,4.0476,4.0477,4.0478,0,3.9905,3.9911,3.9959,4.0011,4.0051,4.0092,4.0131,4.0159,4.0172,4.0212,4.027,4.0305,4.0375,4.043,4.0482,4.0504,4.0494,4.0494,4.0508,4.0508,4.0502,4.0507,4.034,4.0489,4.0488,4.0487,4.0487,4.0486,3.9992,4.0036,4.0076,4.013,4.0161,4.0198,4.0242,4.0262,4.0311,4.0369,4.0371,4.0434,4.0473,4.0542,4.0567,4.0617,4.0599,4.0621,4.0626,4.0631,4.0636,4.0495,4.0626,4.0626,4.0626,4.0625,4.0625,0,4.0115,4.014,4.0191,4.0246,4.029,4.0278,4.0321,4.0358,4.0414,4.0451,4.0496,4.0564,4.0618,4.0645,4.0699,4.0734,4.0731,4.0748,4.0745,4.075,4.0648,4.063,4.0749,4.0749,4.0749,4.0749,4.0749,4.0749,4.0184,4.0258,4.0269,4.0359,4.0384,4.0447,4.0472,4.0507,4.0537,4.0613,4.0658,4.0676,4.0709,4.0766,4.0815,4.0822,4.0842,4.0862,4.0866,4.077,4.0757,4.0745,4.0728,4.0866,4.0866,4.0963,4.0964,4.0965]},{"header":{"parameterUnit":"m.s-1","parameterCategory":1,"la1":30.2991,"la2":30.254,"lo1":-89.0895,"lo2":-89.0444,"dy":0.0017,"dx":0.0017,"nx":28,"ny":28,"refTime":"2025-04-06T21:00:00:Z","depth":0,"parameterNumber":3,"parameterNumberName":"V-component_of_WINDS"},"data":[0,0,0,0,0,0,0,0,0,0,0,0,0,0,0,0,0,0,0,0,0,0,0,0,0,0,0,0,0,0,0,0,0,0,0,0,0,0,0,0,0,0,0,0,0,0,0,0,0,0,0,0,0,0,0,0,0,0,-5.9329,-5.933,0,-5.9415,-5.9416,-5.9417,-5.9357,-5.9354,-5.9351,-5.9349,-5.9434,-5.9439,-5.9443,0,0,0,0,0,0,0,0,0,0,0,0,0,-5.911,-5.9114,-5.9329,-5.933,-5.9331,-5.9415,-5.9416,-5.9417,-5.9357,-5.9354,-5.9351,-5.9348,-5.9433,-5.9438,-5.9444,0,0,0,0,0,0,0,0,0,0,0,0,0,-5.9201,-5.9116,-5.9328,-5.9311,-5.931,-5.9415,-5.9416,-5.9418,-5.9358,-5.9354,-5.935,-5.9346,-5.9431,-5.9438,-5.9445,-5.957,0,0,-5.9467,-5.947,0,0,0,0,0,0,0,0,-5.9196,-5.921,-5.9313,-5.9313,-5.9312,-5.9371,-5.937,-5.9468,-5.9359,-5.934,-5.9349,-5.9344,-5.9416,-5.9424,-5.9449,-5.9574,-5.9577,-5.9467,-5.9472,-5.9475,-5.9477,0,0,0,0,0,0,0,-5.919,-5.9206,-5.9363,-5.9314,-5.9314,-5.9298,-5.9307,-5.9388,-5.9399,-5.9341,-5.9337,-5.9348,-5.9415,-5.9442,-5.9451,-5.9579,-5.9467,-5.9473,-5.9478,-5.9481,-5.9811,-5.9815,0,0,0,0,0,0,-5.9186,-5.9201,-5.936,-5.9365,-5.9243,-5.9306,-5.9315,-5.9356,-5.9398,-5.9401,-5.9352,-5.9345,-5.9432,-5.9442,-5.9454,-5.9603,-5.9475,-5.9481,-5.9485,-5.9806,-5.9812,-5.9817,0,0,0,0,0,0,-5.9181,-5.92,-5.9356,-5.9282,-5.9301,-5.9314,-5.936,-5.936,-5.9387,-5.9406,-5.9408,-5.9378,-5.9429,-5.9443,-5.9542,-5.9605,-5.9484,-5.9491,-5.9801,-5.9808,-5.9814,-5.9904,0,0,0,0,0,0,-5.9175,-5.9199,-5.9247,-5.9284,-5.9305,-5.9444,-5.9364,-5.9365,-5.94,-5.9392,-5.9431,-5.9434,-5.9427,-5.9531,-5.9549,-5.9613,-5.9497,-5.9795,-5.9804,-5.9812,-5.9895,-5.9913,-5.9928,0,0,0,0,0,-5.9168,-5.9268,-5.925,-5.9269,-5.9365,-5.9448,-5.946,-5.9452,-5.9405,-5.9454,-5.9466,-5.9432,-5.9596,-5.9542,-5.9561,-5.9629,-5.9791,-5.9802,-5.9811,-5.9888,-5.9909,-5.9927,0,0,0,0,0,0,-5.9237,-5.9272,-5.9253,-5.9368,-5.9406,-5.9438,-5.9498,-5.9474,-5.9525,-5.9516,-5.9502,-5.9511,-5.9615,-5.9631,-5.9571,-5.9752,-5.9686,-5.9701,-5.9738,-5.9758,-5.9774,-5.9768,-5.9503,0,0,0,0,0,-5.9266,-5.9331,-5.9358,-5.9457,-5.9477,-5.9485,-5.952,-5.9511,-5.9549,-5.9564,-5.9584,-5.9621,-5.9681,-5.972,-5.9776,-5.9897,-5.9905,-5.9953,-5.9969,-5.9983,-5.9995,-6.0061,-6.0083,-5.985,-5.985,-5.9849,0,0,-5.9326,-5.9354,-5.9395,-5.9472,-5.95,-5.9567,-5.9498,-5.9572,-5.9622,-5.9575,-5.9669,-5.9685,-5.9726,-5.9837,-5.9886,-5.9854,-6.0062,-5.9996,-6.0006,-6.0011,-6.0074,-6.0096,-6.0116,-5.9857,-5.9855,-5.9854,0,0,-5.947,-5.9498,-5.9584,-5.9614,-5.9658,-5.9662,-5.9683,-5.9719,-5.9729,-5.9824,-5.979,-5.9849,-5.9952,-5.9983,-6.0012,-6.017,-6.0141,-6.0188,-6.0273,-6.0338,-6.0356,-6.0372,-6.0429,-6.045,-6.0201,-6.0201,-6.0201,0,-5.9539,-5.964,-5.963,-5.9708,-5.9742,-5.9705,-5.9792,-5.9821,-5.9881,-5.9906,-5.9869,-5.9998,-6.0023,-6.0141,-6.018,-6.0204,-6.0227,-6.0183,-6.0354,-6.0371,-6.0386,-6.044,-6.0461,-6.0206,-6.0206,-6.0205,-6.0205,0,-5.9723,-5.9793,-5.9857,-5.9918,-5.996,-6.0041,-6.0044,-6.0088,-6.0075,-6.0084,-6.0181,-6.021,-6.0272,-6.0299,-6.0286,-6.0415,-6.0394,-6.0356,-6.0289,-6.0414,-6.0464,-6.0485,-6.0214,-6.0212,-6.0211,-6.0209,0,0,-5.9912,-5.9968,-5.9991,-6.0019,-6.0065,-6.0119,-6.0199,-6.0261,-6.0299,-6.0342,-6.0409,-6.0498,-6.0464,-6.0497,-6.0487,-6.0544,-6.0668,-6.0499,-6.05,-6.053,-6.0813,-6.0841,-6.0866,-6.065,-6.0654,-6.0657,-6.081,0,-6.0059,-6.02,-6.0194,-6.0326,-6.0391,-6.0357,-6.0427,-6.0463,-6.0473,-6.0529,-6.054,-6.0604,-6.0554,-6.0574,-6.0629,-6.0642,-6.0725,-6.0631,-6.0711,-6.0714,-6.0702,-6.0892,-6.0922,-6.1065,-6.0829,-6.0833,-6.0835,0,-6.0249,-6.03,-6.0438,-6.0477,-6.0504,-6.0567,-6.0624,-6.0678,-6.0718,-6.0722,-6.076,-6.0742,-6.0823,-6.0755,-6.0866,-6.0802,-6.0835,-6.0846,-6.0852,-6.0859,-6.0782,-6.0904,-6.111,-6.1132,-6.0866,-6.0864,-6.0861,0,-6.0374,-6.0477,-6.0573,-6.0598,-6.0645,-6.069,-6.0711,-6.0748,-6.0786,-6.0835,-6.086,-6.0917,-6.0949,-6.0994,-6.0992,-6.0942,-6.1105,-6.1036,-6.111,-6.111,-6.1145,-6.1143,-6.136,-6.1167,-6.1166,-6.1166,-6.1165,0,-6.0538,-6.0624,-6.063,-6.069,-6.0785,-6.0778,-6.0873,-6.0889,-6.0922,-6.0984,-6.0958,-6.1016,-6.101,-6.1069,-6.1067,-6.116,-6.1174,-6.1179,-6.1178,-6.1182,-6.1181,-6.1203,-6.1193,-6.1172,-6.117,-6.1169,-6.1168,0,-6.0694,-6.0701,-6.0804,-6.0841,-6.0852,-6.0921,-6.0952,-6.1008,-6.1017,-6.1095,-6.1113,-6.1127,-6.1195,-6.1198,-6.1275,-6.1274,-6.1387,-6.1375,-6.1374,-6.1372,-6.1446,-6.1439,-6.1684,-6.1716,-6.1502,-6.1504,-6.1505,0,-6.0798,-6.0864,-6.0909,-6.0949,-6.0974,-6.1038,-6.1078,-6.1073,-6.1115,-6.1167,-6.1217,-6.1283,-6.1335,-6.1445,-6.1461,-6.152,-6.1509,-6.1591,-6.1518,-6.152,-6.1511,-6.1507,-6.1514,-6.1605,-6.1607,-6.1609,-6.1611,0,-6.0984,-6.0985,-6.1043,-6.1103,-6.1151,-6.1198,-6.1241,-6.1275,-6.1276,-6.1324,-6.1394,-6.1435,-6.1515,-6.1581,-6.1639,-6.166,-6.1636,-6.1634,-6.1654,-6.1659,-6.1656,-6.1659,-6.1413,-6.1628,-6.1626,-6.1625,-6.1624,-6.1624,-6.1117,-6.1175,-6.1216,-6.1281,-6.1314,-6.1356,-6.1411,-6.1427,-6.1486,-6.1552,-6.1546,-6.1624,-6.1663,-6.1739,-6.1765,-6.1825,-6.1797,-6.1826,-6.1833,-6.1841,-6.1849,-6.1647,-6.1835,-6.1835,-6.1834,-6.1834,-6.1834,0,-6.1302,-6.1327,-6.1388,-6.145,-6.1502,-6.1477,-6.1524,-6.1569,-6.1638,-6.1677,-6.173,-6.1811,-6.1875,-6.1897,-6.1958,-6.2003,-6.1993,-6.2019,-6.2016,-6.2021,-6.187,-6.1847,-6.2026,-6.2026,-6.2026,-6.2026,-6.2026,-6.2026,-6.1404,-6.15,-6.1506,-6.1618,-6.1642,-6.1719,-6.1749,-6.1787,-6.1818,-6.191,-6.1964,-6.1978,-6.2011,-6.2075,-6.2133,-6.2137,-6.2161,-6.2192,-6.2192,-6.2051,-6.2032,-6.2013,-6.1991,-6.2197,-6.2198,-6.2338,-6.2339,-6.234]}]]